This is the latest recevied weather packets stored in our database for station/object SR5NLK-1. If no packets are shown the sender has not sent any weather packets the latest 10 day(s).
| Time | Temp. | Humidity | Pressure | Rain* | Wind** | Luminosity | Snow |
|---|---|---|---|---|---|---|---|
| 1777743906 | 23.33° C | 28% | 1039.7 hPa | 0 mm | - | - | - |
| 1777743306 | 23.89° C | 27% | 1049.1 hPa | 0 mm | - | - | - |
| 1777743006 | 24.44° C | 27% | 1049.1 hPa | 0 mm | - | - | - |
| 1777742706 | 25° C | 25% | 1087.8 hPa | 0 mm | - | - | - |
| 1777742406 | 25° C | 25% | 1004.1 hPa | 0 mm | - | - | - |
| 1777742106 | 25° C | 25% | 962.3 hPa | 0 mm | - | - | - |
| 1777741206 | 25.56° C | 25% | 1049.1 hPa | 0 mm | - | - | - |
| 1777739765 | 26.11° C | 24% | 1015.1 hPa | 0 mm | - | - | - |
| 1777739706 | 26.11° C | 24% | 997.9 hPa | 0 mm | - | - | - |
| 1777739406 | 26.11° C | 24% | 1042.8 hPa | 0 mm | - | - | - |
| 1777739106 | 26.11° C | 24% | 968.6 hPa | 0 mm | - | - | - |
| 1777738806 | 26.67° C | 24% | 1039.7 hPa | 0 mm | - | - | - |
| 1777738206 | 26.67° C | 24% | 1013.5 hPa | 0 mm | - | - | - |
| 1777737906 | 26.67° C | 24% | 968.6 hPa | 0 mm | - | - | - |
| 1777737606 | 27.22° C | 24% | 1007.2 hPa | 0 mm | - | - | - |
| 1777737306 | 27.22° C | 24% | 920.4 hPa | 0 mm | - | - | - |
| 1777737006 | 27.22° C | 24% | 1084.7 hPa | 0 mm | - | - | - |
| 1777736406 | 27.22° C | 24% | 1033.4 hPa | 0 mm | - | - | - |
| 1777736106 | 27.22° C | 24% | 930.6 hPa | 0 mm | - | - | - |
| 1777735805 | 27.22° C | 23% | 1084.6 hPa | 0 mm | - | - | - |
| 1777735506 | 26.67° C | 23% | 1044.4 hPa | 0 mm | - | - | - |
| 1777735206 | 26.67° C | 23% | 1007.3 hPa | 0 mm | - | - | - |
| 1777734906 | 26.67° C | 23% | 1019.4 hPa | 0 mm | - | - | - |
| 1777734606 | 26.67° C | 22% | 997.9 hPa | 0 mm | - | - | - |
| 1777734306 | 27.22° C | 22% | 1046 hPa | 0 mm | - | - | - |
* Rain latest hour (hover to see other rain measurements)
** Current wind speed in m/s (hover to see current wind gust speed)